Zurück zum Katalog

SMIRENNIY L.N.

AktivNavigationSSO
NORAD 57204·PAYLOAD·🇷🇺 Russia
Dieser Satellitenname wurde noch nicht durch offizielle Quellen bestätigt.

Gestartet Jun 27, 2023 von Vostochny Cosmodrome

Loading…

Nächste Überflüge (nächste 24 Stunden)

TLE

AktuellSource: Space-Track

Epoche: Sep 14, 2026, 22:29 UTC

1 57204U 23091AQ  26257.93686155  .00021190  00000-0  50651-3 0  9991
2 57204  97.5006 330.9717 0007159 104.1567 256.0476 15.41491496178586

Verfolge SMIRENNIY L.N. in Echtzeit mit AllMySat

Download on the App Store